Hourly Data Report for October 21, 2014

All times are specified in Local Standard Time (LST). Add 1 hour to adjust for Daylight Saving Time where and when it is observed.

HALL BEACH A
NUNAVUT

68°46'33.000" N
81°14'33.000" W
9.10 m
2402354
71293
YUX

Download Data

Hourly Data (October 2014)
Hourly Data Report for October 21, 2014
Temp Definition
°C
Dew Point Temp Definition
°C
Rel Hum Definition
%
Wind Dir Definition
10's deg

Wind Spd Definition
km/h
Visibility Definition
km
Stn Press Definition
kPa
Hmdx Definition


Wind Chill Definition


Weather Definition


TIME
00:00 Legend Double Dagger -10.9 -12.1 91 32 39 16.1 100.70   -22 LegendNANA
01:00 Legend Double Dagger -11.5 -12.7 91 32 32 16.1 100.77   -22 LegendNANA
02:00 Legend Double Dagger -12.3 -13.5 91 31 30 16.1 100.83   -23 LegendNANA
03:00 Legend Double Dagger -13.0 -14.3 90 31 34 16.1 100.86   -24 LegendNANA
04:00 Legend Double Dagger -13.8 -15.4 88 32 30 16.1 100.82   -24 LegendNANA
05:00 Legend Double Dagger -15.3 -17.0 87 31 30 16.1 100.87   -26 LegendNANA
06:00 Legend Double Dagger -15.4 -17.0 88 30 30 16.1 100.84   -27 LegendNANA
07:00 Legend Double Dagger -16.0 -17.6 88 32 28 16.1 100.79   -27 LegendNANA
08:00 Legend Double Dagger -16.3 -17.7 89 31 30 16.1 100.74   -28 LegendNANA
09:00 Legend Double Dagger -16.7 -18.0 90 31 24 16.1 100.78   -27 LegendNANA
10:00 Legend Double Dagger -14.5 -15.9 90 33 28 16.1 100.71   -25 LegendNANA
11:00 Legend Double Dagger -13.6 -15.3 87 30 13 16.1 100.75   -21 LegendNANA
12:00 Legend Double Dagger -13.2 -14.9 87 30 9 16.1 100.66   -19 LegendNANA
13:00 Legend Double Dagger -13.5 -15.1 88 27 9 16.1 100.63   -19 LegendNANA
14:00 Legend Double Dagger -14.4 -16.0 88 28 18 16.1 100.62   -23 LegendNANA
15:00 Legend Double Dagger -17.5 -19.1 87 26 18 16.1 100.61   -27 LegendNANA
16:00 Legend Double Dagger -18.4 -19.8 89 28 15 16.1 100.58   -27 LegendNANA
17:00 Legend Double Dagger -19.3 -21.0 87 26 15 16.1 100.57   -28 LegendNANA
18:00 Legend Double Dagger -18.6 -20.0 89 30 17 16.1 100.54   -28 LegendNANA
19:00 Legend Double Dagger -19.2 -20.8 87 31 15 16.1 100.50   -28 LegendNANA
20:00 Legend Double Dagger -18.7 -20.2 88 32 17 16.1 100.44   -28 LegendNANA
21:00 Legend Double Dagger -16.5 -17.8 90 32 13 16.1 100.38   -24 LegendNANA
22:00 Legend Double Dagger -14.4 -15.6 91 33 13 16.1 100.34   -22 LegendNANA
23:00 Legend Double Dagger -12.5 -13.5 93 32 11 6.4 100.29   -19 Snow

Notes on Data Quality.

Legend

  • E = Estimated
  • M = Missing
  • NA = Not Available
  • ‡ = Partner data that is not subject to review by the National Climate Archives
Date modified: